TimeEDT,TemperatureF,Dew PointF,Humidity,Sea Level PressureIn,VisibilityMPH,Wind Direction,Wind SpeedMPH,Gust SpeedMPH,PrecipitationIn,Events,Conditions,WindDirDegrees,DateUTC
12:54 AM,63.0,62.1,97,29.79,10.0,ENE,3.5,-,N/A,,Overcast,70,2011-10-13 04:54:00
1:54 AM,62.6,62.6,100,29.80,10.0,NE,3.5,-,N/A,,Overcast,40,2011-10-13 05:54:00
2:54 AM,63.0,62.1,97,29.77,10.0,Calm,Calm,-,N/A,,Overcast,0,2011-10-13 06:54:00
3:54 AM,64.0,62.1,93,29.74,8.0,Calm,Calm,-,0.00,Rain,Light Rain,0,2011-10-13 07:54:00
4:54 AM,64.0,62.1,93,29.73,9.0,Calm,Calm,-,0.00,,Overcast,0,2011-10-13 08:54:00
5:54 AM,63.0,62.1,97,29.73,2.5,Calm,Calm,-,0.04,Rain,Rain,0,2011-10-13 09:54:00
6:03 AM,62.6,62.6,100,29.76,5.0,Calm,Calm,-,0.01,Rain,Light Rain,0,2011-10-13 10:03:00
6:54 AM,63.0,62.1,97,29.73,3.0,Calm,Calm,-,0.01,Rain,Light Rain,0,2011-10-13 10:54:00
7:54 AM,63.0,62.1,97,29.73,2.0,Calm,Calm,-,0.03,Rain,Light Rain,0,2011-10-13 11:54:00
8:27 AM,62.6,62.6,100,29.75,2.0,ENE,3.5,-,0.07,Rain,Light Rain,70,2011-10-13 12:27:00
8:54 AM,63.0,62.1,97,29.73,2.0,NE,3.5,-,0.08,,Overcast,50,2011-10-13 12:54:00
9:54 AM,64.9,63.0,93,29.70,2.0,ESE,5.8,-,0.00,Rain,Light Rain,110,2011-10-13 13:54:00
10:54 AM,64.9,64.0,97,29.69,2.0,SE,8.1,-,0.00,,Overcast,130,2011-10-13 14:54:00
10:57 AM,64.4,64.4,100,29.71,1.5,SE,6.9,-,N/A,,Overcast,130,2011-10-13 14:57:00
11:54 AM,66.0,64.9,96,29.67,1.5,SE,8.1,-,0.01,,Overcast,140,2011-10-13 15:54:00
12:31 PM,69.8,66.2,88,29.69,1.5,SE,10.4,-,0.00,,Mostly Cloudy,130,2011-10-13 16:31:00
12:36 PM,69.8,66.2,88,29.68,10.0,SE,10.4,-,0.00,,Mostly Cloudy,130,2011-10-13 16:36:00
12:54 PM,69.1,66.0,90,29.65,10.0,ESE,8.1,-,0.00,Rain,Light Rain,110,2011-10-13 16:54:00
1:07 PM,69.8,66.2,88,29.66,10.0,ESE,9.2,-,0.00,,Mostly Cloudy,110,2011-10-13 17:07:00
1:54 PM,69.1,66.0,90,29.61,10.0,SE,8.1,-,0.02,Rain,Light Rain,130,2011-10-13 17:54:00
2:30 PM,69.8,66.2,88,29.62,10.0,SE,8.1,-,0.00,,Overcast,140,2011-10-13 18:30:00
2:54 PM,69.8,62.6,78,29.61,10.0,SSE,11.5,-,N/A,,Overcast,150,2011-10-13 18:54:00
3:54 PM,66.0,64.9,96,29.57,4.0,SSW,6.9,-,0.21,Rain,Heavy Rain,200,2011-10-13 19:54:00
4:39 PM,71.6,64.4,78,29.58,10.0,Variable,4.6,-,0.01,,Mostly Cloudy,0,2011-10-13 20:39:00
4:54 PM,70.0,64.0,81,29.56,10.0,ESE,10.4,-,0.01,,Mostly Cloudy,120,2011-10-13 20:54:00
5:54 PM,66.9,63.0,87,29.55,10.0,SE,9.2,-,N/A,,Mostly Cloudy,130,2011-10-13 21:54:00
6:54 PM,64.9,63.0,93,29.56,10.0,SE,12.7,-,N/A,,Mostly Cloudy,140,2011-10-13 22:54:00
7:54 PM,64.9,62.1,90,29.57,10.0,South,8.1,-,N/A,,Partly Cloudy,170,2011-10-13 23:54:00
8:54 PM,64.9,61.0,87,29.59,10.0,Calm,Calm,-,N/A,,Overcast,0,2011-10-14 00:54:00
9:54 PM,62.1,59.0,90,29.59,10.0,West,6.9,-,0.02,,Mostly Cloudy,260,2011-10-14 01:54:00
10:54 PM,61.0,55.9,83,29.59,10.0,West,5.8,-,0.00,Rain,Light Rain,260,2011-10-14 02:54:00
11:54 PM,61.0,55.9,83,29.60,10.0,WSW,4.6,-,0.00,,Overcast,240,2011-10-14 03:54:00